Regional Weather Roundup
Issued by NWS Cleveland, OH

Home | Current Version | Previous Version | Graphics & Text | Print | Product List | Glossary On
Versions: 1 2 3 4 5 6 7 8 9 10 11 12 13 14 15 16 17 18 19 20 21 22 23 24 25 26 27 28 29 30 31 32 33 34 35 36 37 38 39 40 41 42 43 44 45 46 47 48 49 50
000
ASUS41 KCLE 291910
RWRCLE
OHIO REGIONAL WEATHER ROUNDUP
NATIONAL WEATHER SERVICE CLEVELAND, OH
300 PM EDT FRI AUG 29 2014

NOTE: "FAIR" INDICATES FEW OR NO CLOUDS BELOW 12,000 FEET WITH NO
SIGNIFICANT WEATHER AND/OR OBSTRUCTIONS TO VISIBILITY.

OHZ001>008-015>018-024>027-034-035-043-044-292000-
   NORTHWEST OHIO

CITY           SKY/WX    TMP DP  RH WIND       PRES   REMARKS
DEFIANCE       PTSUNNY   81  62  52 S6        30.06F
FINDLAY        SUNNY     81  62  52 S8        30.07F
TOLEDO EXPRESS MOSUNNY   81  60  48 S6        30.07F
TOLEDO EXEC    MOSUNNY   81  58  45 E9        30.08F
LIMA           SUNNY     81  64  56 S9        30.08F
$$

OHZ009>014-019>023-028>033-038-089-292000-
   NORTHEAST OHIO

CITY           SKY/WX    TMP DP  RH WIND       PRES   REMARKS
CLE-HOPKINS    MOSUNNY   77  52  41 SE8       30.12F
CLE-LAKEFRONT  SUNNY     75  57  53 N8        30.10F
CUY CO. ARPT   MOSUNNY   81  54  39 SW7       30.13F
LORAIN-ELYRIA  MOSUNNY   80  51  36 S7        30.11F
ASHTABULA      SUNNY     75  51  43 S5        30.14F
AKRON-CANTON   MOSUNNY   79  44  28 CALM      30.12F
WOOSTER        SUNNY     78  56  46 S7        30.12F
MANSFIELD      PTSUNNY   79  55  43 VRB7      30.12F
YOUNGSTOWN     MOSUNNY   75  52  44 E5        30.14F
$$

OHZ042-051>053-060>062-070>072-077>081-292000-
  SOUTHWEST OHIO

CITY           SKY/WX    TMP DP  RH WIND       PRES   REMARKS
CINC-COVINGTON MOSUNNY   87  65  47 E7        30.04F
CINC-LUNKEN    MOSUNNY   87  66  49 CALM      30.04F
HAMILTON       SUNNY     88  66  48 VRB5      30.05F HX  90
DAYTON         MOSUNNY   84  64  50 SE7       30.08F
WRIGHT-PAT AFB SUNNY     83  65  54 S7        30.07F
DAYTON GENERAL SUNNY     83  65  54 SE9       30.06F
WILMINGTON     SUNNY     82  64  54 VRB5      30.07F
$$

OHZ036-037-039>041-045>050-054>059-063>069-073>076-082>088-292000-
  CENTRAL AND SOUTHEAST OHIO

CITY           SKY/WX    TMP DP  RH WIND       PRES   REMARKS
COLUMBUS       MOSUNNY   84  56  38 VRB7      30.08F
OSU AIRPORT    SUNNY     82  58  43 SE10      30.08F
BOLTON FIELD   SUNNY     81  63  54 SE5       30.09F
RICKENBACK AFB SUNNY     84  52  32 S5        30.07F
NEWARK         SUNNY     80  59  48 S3        30.09F
MARION         MOSUNNY   79  59  50 S9        30.10F
LANCASTER      SUNNY     83  60  45 SE7       30.09F
ZANESVILLE     SUNNY     79  56  45 S6        30.11F
NEW PHILLY     SUNNY     78  57  48 VRB5      30.12F
$$



USA.gov is the U.S. government's official web portal to all federal, state and local government web resources and services.